Time,TemperatureF,DewpointF,PressureIn,WindDirection,WindDirectionDegrees,WindSpeedMPH,WindSpeedGustMPH,Humidity,HourlyPrecipIn,Conditions,Clouds,dailyrainin,SoftwareType,DateUTC
2013-03-06 00:10:00,31.3,29.0,29.64,WNW,291,22.0,-999.0,91,-99.99,,,0.00,weatherlink.com 1.10,2013-03-06 05:10:00,
2013-03-06 00:25:00,30.6,28.0,29.64,WNW,300,17.0,-999.0,88,-99.99,,,0.00,weatherlink.com 1.10,2013-03-06 05:25:00,
2013-03-06 00:40:00,29.5,26.0,29.64,WNW,284,21.0,-999.0,87,-99.99,,,0.00,weatherlink.com 1.10,2013-03-06 05:40:00,
2013-03-06 00:55:00,28.5,25.0,29.66,WNW,294,11.0,-999.0,86,-99.99,,,0.00,weatherlink.com 1.10,2013-03-06 05:55:00,
2013-03-06 01:10:00,27.9,25.0,29.65,NW,318,14.0,-999.0,87,-99.99,,,0.00,weatherlink.com 1.10,2013-03-06 06:10:00,
2013-03-06 01:25:00,27.2,24.0,29.65,West,267,16.0,-999.0,86,-99.99,,,0.00,weatherlink.com 1.10,2013-03-06 06:25:00,
2013-03-06 01:40:00,26.6,23.0,29.66,WNW,285,11.0,-999.0,86,-99.99,,,0.00,weatherlink.com 1.10,2013-03-06 06:40:00,
2013-03-06 01:55:00,26.1,23.0,29.67,NW,320,13.0,-999.0,87,-99.99,,,0.00,weatherlink.com 1.10,2013-03-06 06:55:00,
2013-03-06 02:10:00,25.7,21.0,29.66,WNW,288,16.0,-999.0,83,-99.99,,,0.00,weatherlink.com 1.10,2013-03-06 07:10:00,
2013-03-06 02:25:00,25.4,21.0,29.66,WNW,282,14.0,-999.0,82,-99.99,,,0.00,weatherlink.com 1.10,2013-03-06 07:25:00,
2013-03-06 02:40:00,25.1,21.0,29.66,WNW,301,13.0,-999.0,83,-99.99,,,0.00,weatherlink.com 1.10,2013-03-06 07:40:00,
2013-03-06 02:56:00,24.7,20.0,29.66,WSW,257,5.0,-999.0,81,-99.99,,,0.00,weatherlink.com 1.10,2013-03-06 07:56:00,
2013-03-06 03:11:00,24.4,19.0,29.66,NW,308,14.0,-999.0,80,-99.99,,,0.00,weatherlink.com 1.10,2013-03-06 08:11:00,
2013-03-06 03:26:00,23.9,19.0,29.66,NW,317,10.0,-999.0,82,-99.99,,,0.00,weatherlink.com 1.10,2013-03-06 08:26:00,
2013-03-06 03:41:00,23.6,20.0,29.68,WNW,283,13.0,-999.0,85,-99.99,,,0.00,weatherlink.com 1.10,2013-03-06 08:41:00,
2013-03-06 03:56:00,23.5,20.0,29.67,West,279,4.0,-999.0,87,-99.99,,,0.00,weatherlink.com 1.10,2013-03-06 08:56:00,
2013-03-06 04:11:00,23.3,20.0,29.67,NNW,332,15.0,-999.0,88,-99.99,,,0.00,weatherlink.com 1.10,2013-03-06 09:11:00,
2013-03-06 04:26:00,23.0,20.0,29.67,WSW,248,19.0,-999.0,87,-99.99,,,0.00,weatherlink.com 1.10,2013-03-06 09:26:00,
2013-03-06 04:41:00,22.4,18.0,29.67,West,281,8.0,-999.0,83,-99.99,,,0.00,weatherlink.com 1.10,2013-03-06 09:41:00,
2013-03-06 04:56:00,22.1,18.0,29.67,West,271,14.0,-999.0,83,-99.99,,,0.00,weatherlink.com 1.10,2013-03-06 09:56:00,
2013-03-06 05:11:00,21.9,17.0,29.67,WNW,288,22.0,-999.0,82,-99.99,,,0.00,weatherlink.com 1.10,2013-03-06 10:11:00,
2013-03-06 05:26:00,21.6,17.0,29.68,NNW,327,15.0,-999.0,82,-99.99,,,0.00,weatherlink.com 1.10,2013-03-06 10:26:00,
2013-03-06 05:41:00,21.4,17.0,29.70,NW,307,19.0,-999.0,82,-99.99,,,0.00,weatherlink.com 1.10,2013-03-06 10:41:00,
2013-03-06 05:56:00,21.0,17.0,29.70,WNW,295,18.0,-999.0,83,-99.99,,,0.00,weatherlink.com 1.10,2013-03-06 10:56:00,
2013-03-06 06:11:00,21.0,16.0,29.71,NW,314,14.0,-999.0,81,-99.99,,,0.00,weatherlink.com 1.10,2013-03-06 11:11:00,
2013-03-06 06:26:00,21.0,16.0,29.70,NNW,335,15.0,-999.0,81,-99.99,,,0.00,weatherlink.com 1.10,2013-03-06 11:26:00,
2013-03-06 06:41:00,20.8,17.0,29.72,NNW,329,19.0,-999.0,85,-99.99,,,0.00,weatherlink.com 1.10,2013-03-06 11:41:00,
2013-03-06 06:56:00,20.8,17.0,29.73,NW,315,13.0,-999.0,84,-99.99,,,0.00,weatherlink.com 1.10,2013-03-06 11:56:00,
2013-03-06 07:11:00,20.8,17.0,29.72,NW,311,13.0,-999.0,85,-99.99,,,0.00,weatherlink.com 1.10,2013-03-06 12:11:00,
2013-03-06 07:26:00,20.6,17.0,29.72,NW,319,16.0,-999.0,85,-99.99,,,0.00,weatherlink.com 1.10,2013-03-06 12:26:00,
2013-03-06 07:41:00,20.8,17.0,29.71,NW,322,11.0,-999.0,86,-99.99,,,0.00,weatherlink.com 1.10,2013-03-06 12:41:00,
2013-03-06 07:56:00,21.0,17.0,29.73,NNW,335,13.0,-999.0,84,-99.99,,,0.00,weatherlink.com 1.10,2013-03-06 12:56:00,
2013-03-06 08:11:00,21.3,17.0,29.74,NW,325,20.0,-999.0,83,-99.99,,,0.00,weatherlink.com 1.10,2013-03-06 13:11:00,
2013-03-06 08:26:00,21.4,17.0,29.76,NW,316,17.0,-999.0,83,-99.99,,,0.00,weatherlink.com 1.10,2013-03-06 13:26:00,
2013-03-06 08:41:00,21.4,17.0,29.77,WNW,297,8.0,-999.0,84,-99.99,,,0.00,weatherlink.com 1.10,2013-03-06 13:41:00,
2013-03-06 08:56:00,21.8,18.0,29.80,NW,311,17.0,-999.0,85,-99.99,,,0.00,weatherlink.com 1.10,2013-03-06 13:56:00,
2013-03-06 09:11:00,21.8,17.0,29.80,NW,305,12.0,-999.0,82,-99.99,,,0.00,weatherlink.com 1.10,2013-03-06 14:11:00,
2013-03-06 09:26:00,21.8,17.0,29.80,West,260,17.0,-999.0,82,-99.99,,,0.00,weatherlink.com 1.10,2013-03-06 14:26:00,
2013-03-06 09:41:00,22.5,18.0,29.80,NW,305,13.0,-999.0,81,-99.99,,,0.00,weatherlink.com 1.10,2013-03-06 14:41:00,
2013-03-06 09:56:00,23.5,18.0,29.79,West,268,23.0,-999.0,79,-99.99,,,0.00,weatherlink.com 1.10,2013-03-06 14:56:00,
2013-03-06 10:11:00,23.6,18.0,29.79,NNW,338,19.0,-999.0,78,-99.99,,,0.00,weatherlink.com 1.10,2013-03-06 15:11:00,
2013-03-06 10:26:00,23.9,18.0,29.82,WNW,303,11.0,-999.0,79,-99.99,,,0.00,weatherlink.com 1.10,2013-03-06 15:26:00,
2013-03-06 10:41:00,24.5,18.0,29.82,NNW,327,12.0,-999.0,76,-99.99,,,0.00,weatherlink.com 1.10,2013-03-06 15:41:00,
2013-03-06 10:56:00,25.0,19.0,29.81,NW,315,21.0,-999.0,77,-99.99,,,0.00,weatherlink.com 1.10,2013-03-06 15:56:00,
2013-03-06 11:11:00,25.6,19.0,29.83,NW,305,19.0,-999.0,75,-99.99,,,0.00,weatherlink.com 1.10,2013-03-06 16:11:00,
2013-03-06 11:26:00,25.8,19.0,29.81,NW,323,17.0,-999.0,74,-99.99,,,0.00,weatherlink.com 1.10,2013-03-06 16:26:00,
2013-03-06 11:41:00,26.0,19.0,29.83,WSW,256,16.0,-999.0,76,-99.99,,,0.00,weatherlink.com 1.10,2013-03-06 16:41:00,
2013-03-06 11:56:00,26.3,20.0,29.86,WNW,300,5.0,-999.0,77,-99.99,,,0.00,weatherlink.com 1.10,2013-03-06 16:56:00,
2013-03-06 12:11:00,26.4,20.0,29.88,WNW,293,11.0,-999.0,77,-99.99,,,0.00,weatherlink.com 1.10,2013-03-06 17:11:00,
2013-03-06 12:26:00,26.7,21.0,29.90,West,281,6.0,-999.0,78,-99.99,,,0.00,weatherlink.com 1.10,2013-03-06 17:26:00,
2013-03-06 12:41:00,26.6,21.0,29.92,NW,309,6.0,-999.0,79,-99.99,,,0.00,weatherlink.com 1.10,2013-03-06 17:41:00,
2013-03-06 12:56:00,26.1,21.0,29.92,NW,307,3.0,-999.0,81,-99.99,,,0.00,weatherlink.com 1.10,2013-03-06 17:56:00,
2013-03-06 13:11:00,25.8,21.0,29.93,West,264,16.0,-999.0,81,-99.99,,,0.00,weatherlink.com 1.10,2013-03-06 18:11:00,
2013-03-06 13:26:00,25.8,20.0,29.93,North,349,29.0,-999.0,79,-99.99,,,0.00,weatherlink.com 1.10,2013-03-06 18:26:00,
2013-03-06 13:41:00,26.3,22.0,29.92,NNW,347,10.0,-999.0,82,-99.99,,,0.00,weatherlink.com 1.10,2013-03-06 18:41:00,
2013-03-06 13:56:00,25.8,21.0,29.93,WNW,294,13.0,-999.0,82,-99.99,,,0.00,weatherlink.com 1.10,2013-03-06 18:56:00,
2013-03-06 14:11:00,26.3,22.0,29.95,NW,305,4.0,-999.0,83,-99.99,,,0.00,weatherlink.com 1.10,2013-03-06 19:11:00,
2013-03-06 14:26:00,27.0,22.0,29.95,NW,305,13.0,-999.0,82,-99.99,,,0.00,weatherlink.com 1.10,2013-03-06 19:26:00,
2013-03-06 14:41:00,27.6,23.0,29.96,NW,316,9.0,-999.0,81,-99.99,,,0.00,weatherlink.com 1.10,2013-03-06 19:41:00,
2013-03-06 14:56:00,27.8,22.0,29.96,NW,325,10.0,-999.0,80,-99.99,,,0.00,weatherlink.com 1.10,2013-03-06 19:56:00,
2013-03-06 15:11:00,27.5,22.0,29.98,WNW,292,13.0,-999.0,80,-99.99,,,0.00,weatherlink.com 1.10,2013-03-06 20:11:00,
2013-03-06 15:26:00,26.6,22.0,29.99,NW,315,10.0,-999.0,81,-99.99,,,0.00,weatherlink.com 1.10,2013-03-06 20:26:00,
2013-03-06 15:41:00,26.1,22.0,30.01,NNW,340,6.0,-999.0,83,-99.99,,,0.00,weatherlink.com 1.10,2013-03-06 20:41:00,
2013-03-06 15:56:00,26.3,22.0,30.03,NW,325,7.0,-999.0,83,-99.99,,,0.00,weatherlink.com 1.10,2013-03-06 20:56:00,
2013-03-06 16:11:00,26.4,22.0,30.05,NW,306,5.0,-999.0,83,-99.99,,,0.00,weatherlink.com 1.10,2013-03-06 21:11:00,
2013-03-06 16:26:00,26.0,22.0,30.07,NW,312,14.0,-999.0,84,-99.99,,,0.00,weatherlink.com 1.10,2013-03-06 21:26:00,
2013-03-06 16:41:00,25.6,22.0,30.08,WNW,299,10.0,-999.0,86,-99.99,,,0.00,weatherlink.com 1.10,2013-03-06 21:41:00,
2013-03-06 16:56:00,25.0,22.0,30.11,WNW,299,11.0,-999.0,87,-99.99,,,0.00,weatherlink.com 1.10,2013-03-06 21:56:00,
2013-03-06 17:11:00,24.7,22.0,30.12,NW,317,10.0,-999.0,88,-99.99,,,0.00,weatherlink.com 1.10,2013-03-06 22:11:00,
2013-03-06 17:27:00,24.2,22.0,30.13,NNW,347,12.0,-999.0,90,-99.99,,,0.00,weatherlink.com 1.10,2013-03-06 22:27:00,
2013-03-06 17:42:00,24.1,22.0,30.14,NW,323,16.0,-999.0,90,-99.99,,,0.00,weatherlink.com 1.10,2013-03-06 22:42:00,
2013-03-06 17:57:00,23.9,21.0,30.15,NW,317,12.0,-999.0,90,-99.99,,,0.00,weatherlink.com 1.10,2013-03-06 22:57:00,
2013-03-06 18:12:00,23.9,21.0,30.16,NNW,328,11.0,-999.0,90,-99.99,,,0.00,weatherlink.com 1.10,2013-03-06 23:12:00,
2013-03-06 18:27:00,23.9,21.0,30.17,North,349,6.0,-999.0,90,-99.99,,,0.00,weatherlink.com 1.10,2013-03-06 23:27:00,
2013-03-06 18:42:00,23.9,21.0,30.18,North,360,10.0,-999.0,90,-99.99,,,0.00,weatherlink.com 1.10,2013-03-06 23:42:00,
2013-03-06 18:57:00,23.9,21.0,30.18,WNW,302,11.0,-999.0,89,-99.99,,,0.00,weatherlink.com 1.10,2013-03-06 23:57:00,
2013-03-06 19:12:00,23.9,21.0,30.19,North,355,9.0,-999.0,89,-99.99,,,0.00,weatherlink.com 1.10,2013-03-07 00:12:00,
2013-03-06 19:27:00,23.8,21.0,30.19,NNE,32,5.0,-999.0,89,-99.99,,,0.00,weatherlink.com 1.10,2013-03-07 00:27:00,
2013-03-06 19:42:00,23.6,21.0,30.19,NW,304,3.0,-999.0,90,-99.99,,,0.00,weatherlink.com 1.10,2013-03-07 00:42:00,
2013-03-06 19:57:00,23.6,21.0,30.19,North,5,4.0,-999.0,90,-99.99,,,0.00,weatherlink.com 1.10,2013-03-07 00:57:00,
2013-03-06 20:12:00,23.6,21.0,30.20,WNW,290,7.0,-999.0,91,-99.99,,,0.00,weatherlink.com 1.10,2013-03-07 01:12:00,
2013-03-06 20:27:00,23.5,21.0,30.20,NW,321,2.0,-999.0,91,-99.99,,,0.00,weatherlink.com 1.10,2013-03-07 01:27:00,
2013-03-06 20:42:00,23.5,21.0,30.19,West,261,6.0,-999.0,91,-99.99,,,0.00,weatherlink.com 1.10,2013-03-07 01:42:00,
2013-03-06 20:57:00,23.5,21.0,30.20,NW,309,5.0,-999.0,91,-99.99,,,0.00,weatherlink.com 1.10,2013-03-07 01:57:00,
2013-03-06 21:12:00,23.3,21.0,30.20,NNW,329,5.0,-999.0,92,-99.99,,,0.00,weatherlink.com 1.10,2013-03-07 02:12:00,
2013-03-06 21:27:00,23.3,21.0,30.21,WNW,296,7.0,-999.0,91,-99.99,,,0.00,weatherlink.com 1.10,2013-03-07 02:27:00,
2013-03-06 21:42:00,23.3,21.0,30.20,NW,325,6.0,-999.0,92,-99.99,,,0.00,weatherlink.com 1.10,2013-03-07 02:42:00,
2013-03-06 21:57:00,23.3,21.0,30.20,NW,325,6.0,-999.0,92,-99.99,,,0.00,weatherlink.com 1.10,2013-03-07 02:57:00,
2013-03-06 22:12:00,23.2,21.0,30.20,North,9,7.0,-999.0,92,-99.99,,,0.00,weatherlink.com 1.10,2013-03-07 03:12:00,
2013-03-06 22:27:00,23.2,21.0,30.20,NNW,343,8.0,-999.0,92,-99.99,,,0.00,weatherlink.com 1.10,2013-03-07 03:27:00,
2013-03-06 22:42:00,23.2,21.0,30.21,NNW,334,1.0,-999.0,92,-99.99,,,0.00,weatherlink.com 1.10,2013-03-07 03:42:00,
2013-03-06 22:57:00,23.2,21.0,30.21,North,5,2.0,-999.0,92,-99.99,,,0.00,weatherlink.com 1.10,2013-03-07 03:57:00,
2013-03-06 23:12:00,23.0,21.0,30.22,North,11,4.0,-999.0,92,-99.99,,,0.00,weatherlink.com 1.10,2013-03-07 04:12:00,
2013-03-06 23:27:00,23.0,21.0,30.21,NW,313,5.0,-999.0,92,-99.99,,,0.00,weatherlink.com 1.10,2013-03-07 04:27:00,
2013-03-06 23:42:00,22.9,21.0,30.21,NE,38,5.0,-999.0,92,-99.99,,,0.00,weatherlink.com 1.10,2013-03-07 04:42:00,
2013-03-06 23:57:00,22.9,21.0,30.21,NW,311,13.0,-999.0,92,-99.99,,,0.00,weatherlink.com 1.10,2013-03-07 04:57:00,